| time (UTC) | temp F | wind direction | speed MPH | gust MPH | rain 1hr in | rain 24hr in | rain mn in | humidity % | barometer mb |
| 20260905151519 | 52 | 63 | 0.0 | 0.0 | 0.01 | 0.08 | 0.08 | 91 | 1021.1 |
| 20260905150016 | 52 | 63 | 0.0 | 0.0 | 0.02 | 0.08 | 0.08 | 91 | 1020.9 |
| 20260905144521 | 52 | 70 | 0.0 | 0.0 | 0.02 | 0.08 | 0.08 | 91 | 1020.6 |
| 20260905143021 | 52 | 329 | 0.0 | 0.0 | 0.02 | 0.08 | 0.08 | 91 | 1020.4 |
| 20260905141521 | 51 | 346 | 0.0 | 0.0 | 0.02 | 0.07 | 0.07 | 90 | 1020.4 |
| 20260905140024 | 51 | 329 | 0.0 | 0.0 | 0.04 | 0.06 | 0.06 | 89 | 1020.2 |
| 20260905134528 | 51 | 335 | 0.0 | 0.0 | 0.06 | 0.06 | 0.06 | 88 | 1020.5 |
| 20260905133024 | 51 | 338 | 0.0 | 0.0 | 0.06 | 0.06 | 0.06 | 87 | 1020.8 |
| 20260905131523 | 52 | 295 | 0.0 | 0.0 | 0.05 | 0.05 | 0.05 | 86 | 1021.2 |
| 20260905130014 | 52 | 256 | 0.0 | 0.0 | 0.02 | 0.02 | 0.02 | 85 | 1021.2 |
| 20260905124521 | 52 | 283 | 0.0 | 0.0 | 0.00 | 0.00 | 0.00 | 83 | 1020.8 |
| 20260905123029 | 53 | 299 | 0.0 | 0.0 | 0.00 | 0.00 | 0.00 | 83 | 1020.0 |
| 20260905121525 | 53 | 296 | 0.0 | 0.0 | 0.00 | 0.00 | 0.00 | 82 | 1019.5 |
| 20260905120030 | 53 | 254 | 0.0 | 0.0 | 0.00 | 0.00 | 0.00 | 81 | 1019.9 |
| 20260905114516 | 54 | 264 | 0.0 | 0.0 | 0.00 | 0.00 | 0.00 | 77 | 1019.8 |
| 20260905113026 | 55 | 264 | 0.0 | 0.0 | 0.00 | 0.00 | 0.00 | 72 | 1019.7 |
| 20260905111531 | 55 | 293 | 0.0 | 0.0 | 0.00 | 0.00 | 0.00 | 72 | 1019.7 |
| 20260905110028 | 55 | 274 | 0.0 | 0.0 | 0.00 | 0.00 | 0.00 | 73 | 1019.3 |
| 20260905104528 | 54 | 274 | 0.0 | 0.0 | 0.00 | 0.00 | 0.00 | 75 | 1019.4 |
| 20260905103032 | 54 | 276 | 0.0 | 0.0 | 0.00 | 0.00 | 0.00 | 77 | 1019.2 |
| 20260905101530 | 54 | 274 | 0.0 | 0.0 | 0.00 | 0.00 | 0.00 | 75 | 1018.6 |
| 20260905100035 | 53 | 268 | 0.0 | 0.0 | 0.00 | 0.00 | 0.00 | 77 | 1019.0 |
| 20260905094530 | 52 | 263 | 0.0 | 0.0 | 0.00 | 0.00 | 0.00 | 77 | 1018.9 |
| 20260905093019 | 52 | 273 | 0.0 | 0.0 | 0.00 | 0.00 | 0.00 | 76 | 1018.8 |
| 20260905091524 | 52 | 276 | 0.0 | 0.0 | 0.00 | 0.00 | 0.00 | 77 | 1018.6 |
| 20260905090035 | 51 | 255 | 0.0 | 0.0 | 0.00 | 0.00 | 0.00 | 78 | 1018.9 |
| 20260905084511 | 51 | 261 | 0.0 | 0.0 | 0.00 | 0.00 | 0.00 | 75 | 1018.3 |
| 20260905083018 | 52 | 240 | 0.0 | 0.0 | 0.00 | 0.00 | 0.00 | 73 | 1018.3 |
| 20260905081523 | 53 | 269 | 0.0 | 0.0 | 0.00 | 0.00 | 0.00 | 70 | 1017.7 |
| 20260905080011 | 54 | 75 | 0.0 | 0.0 | 0.00 | 0.00 | 0.00 | 70 | 1017.5 |
| 20260905074508 | 54 | 1 | 0.0 | 0.0 | 0.00 | 0.00 | 0.00 | 71 | 1017.1 |
| 20260905073016 | 55 | 265 | 0.0 | 0.0 | 0.00 | 0.00 | 0.00 | 68 | 1018.7 |
| 20260905071523 | 54 | 285 | 0.0 | 0.0 | 0.00 | 0.00 | 0.00 | 68 | 1018.7 |
| 20260905070034 | 54 | 281 | 0.0 | 0.0 | 0.00 | 0.00 | 0.00 | 68 | 1018.4 |
| 20260905064508 | 54 | 294 | 0.0 | 0.0 | 0.00 | 0.00 | 0.00 | 67 | 1018.2 |
| 20260905063012 | 55 | 276 | 0.0 | 0.0 | 0.00 | 0.00 | 0.00 | 67 | 1018.2 |
| 20260905061518 | 55 | 340 | 0.0 | 0.0 | 0.00 | 0.00 | 0.00 | 63 | 1018.2 |
| 20260905060023 | 56 | 339 | 0.0 | 0.0 | 0.00 | 0.00 | 0.00 | 62 | 1018.2 |
| 20260905054533 | 56 | 270 | 0.0 | 0.0 | 0.00 | 0.00 | 0.00 | 61 | 1018.2 |
| 20260905053013 | 56 | 317 | 0.0 | 0.0 | 0.00 | 0.00 | 0.00 | 61 | 1018.2 |
| 20260905051517 | 57 | 1 | 0.0 | 0.0 | 0.00 | 0.00 | 0.00 | 60 | 1017.9 |
| 20260905050024 | 57 | 321 | 0.0 | 0.0 | 0.00 | 0.00 | 0.00 | 59 | 1017.3 |
| 20260905044535 | 57 | 280 | 0.0 | 0.0 | 0.00 | 0.00 | 0.00 | 60 | 1017.7 |
| 20260905043031 | 59 | 266 | 0.0 | 0.0 | 0.00 | 0.00 | 0.00 | 63 | 1018.2 |
| 20260905041513 | 60 | 299 | 0.0 | 0.0 | 0.00 | 0.00 | 0.00 | 60 | 1018.0 |
| 20260905040022 | 62 | 314 | 0.0 | 0.0 | 0.00 | 0.00 | 0.00 | 57 | 1017.2 |
| 20260905034529 | 63 | 298 | 0.0 | 0.0 | 0.00 | 0.00 | 0.00 | 47 | 1017.7 |
| 20260905033033 | 63 | 243 | 0.0 | 0.0 | 0.00 | 0.00 | 0.00 | 46 | 1016.8 |
| 20260905031537 | 63 | 297 | 0.0 | 0.0 | 0.00 | 0.00 | 0.00 | 46 | 1016.4 |
| 20260905030025 | 64 | 251 | 0.0 | 0.0 | 0.00 | 0.00 | 0.00 | 45 | 1016.5 |
| 20260905024525 | 64 | 288 | 0.0 | 0.0 | 0.00 | 0.00 | 0.00 | 43 | 1016.5 |
| 20260905023033 | 65 | 290 | 0.0 | 0.0 | 0.00 | 0.00 | 0.00 | 42 | 1016.3 |
| 20260905021533 | 65 | 317 | 0.0 | 0.0 | 0.00 | 0.00 | 0.00 | 42 | 1015.5 |
| 20260905020026 | 66 | 40 | 0.0 | 0.0 | 0.00 | 0.00 | 0.00 | 41 | 1015.3 |
| 20260905014522 | 67 | 326 | 0.0 | 0.0 | 0.00 | 0.00 | 0.00 | 40 | 1015.3 |
| 20260905013004 | 67 | 357 | 0.0 | 0.0 | 0.00 | 0.00 | 0.00 | 39 | 1014.4 |
| 20260905011508 | 68 | 1 | 0.0 | 0.0 | 0.00 | 0.00 | 0.00 | 38 | 1013.8 |
| 20260905010011 | 69 | 37 | 0.0 | 0.0 | 0.00 | 0.00 | 0.00 | 36 | 1013.6 |
| 20260905004519 | 70 | 27 | 0.0 | 0.0 | 0.00 | 0.00 | 0.00 | 36 | 1013.5 |
| 20260905003004 | 70 | 19 | 0.0 | 3.0 | 0.00 | 0.00 | 0.00 | 36 | 1014.2 |
| 20260905001507 | 71 | 14 | 0.0 | 0.0 | 0.00 | 0.00 | 0.00 | 35 | 1014.3 |
| 20260905000011 | 72 | 46 | 0.0 | 0.0 | 0.00 | 0.00 | 0.00 | 34 | 1014.1 |
| 20260904234520 | 73 | 339 | 0.0 | 0.0 | 0.00 | 0.00 | 0.00 | 34 | 1014.1 |
| 20260904233023 | 74 | 330 | 0.0 | 2.0 | 0.00 | 0.00 | 0.00 | 33 | 1014.2 |
| 20260904231506 | 74 | 11 | 0.0 | 6.0 | 0.00 | 0.00 | 0.00 | 33 | 1013.8 |
| 20260904230012 | 75 | 345 | 0.0 | 3.0 | 0.00 | 0.00 | 0.00 | 32 | 1013.7 |
| 20260904224516 | 74 | 344 | 0.0 | 9.0 | 0.00 | 0.00 | 0.00 | 33 | 1013.7 |
| 20260904223023 | 75 | 338 | 0.0 | 0.0 | 0.00 | 0.00 | 0.00 | 32 | 1013.6 |
| 20260904221530 | 75 | 333 | 0.0 | 0.0 | 0.00 | 0.00 | 0.00 | 31 | 1013.3 |
| 20260904220008 | 75 | 347 | 0.0 | 4.0 | 0.00 | 0.00 | 0.00 | 32 | 1013.2 |
| 20260904214514 | 75 | 344 | 0.0 | 3.0 | 0.00 | 0.00 | 0.00 | 32 | 1012.9 |
| 20260904213018 | 74 | 1 | 0.0 | 8.0 | 0.00 | 0.00 | 0.00 | 33 | 1013.0 |
| 20260904211527 | 74 | 284 | 0.0 | 5.0 | 0.00 | 0.00 | 0.00 | 32 | 1012.9 |
| 20260904210035 | 73 | 340 | 0.0 | 0.0 | 0.00 | 0.00 | 0.00 | 33 | 1012.8 |
| 20260904204513 | 73 | 336 | 0.0 | 4.0 | 0.00 | 0.00 | 0.00 | 33 | 1012.6 |
| 20260904203025 | 72 | 320 | 0.0 | 6.0 | 0.00 | 0.00 | 0.00 | 34 | 1012.6 |
| 20260904201524 | 71 | 356 | 0.0 | 5.0 | 0.00 | 0.00 | 0.00 | 35 | 1012.4 |
| 20260904200030 | 71 | 326 | 0.0 | 6.0 | 0.00 | 0.00 | 0.00 | 34 | 1012.3 |
| 20260904194512 | 71 | 335 | 0.0 | 7.0 | 0.00 | 0.00 | 0.00 | 34 | 1012.1 |
| 20260904193024 | 71 | 328 | 1.0 | 7.0 | 0.00 | 0.00 | 0.00 | 34 | 1011.8 |
| 20260904191526 | 70 | 312 | 0.0 | 9.0 | 0.00 | 0.00 | 0.00 | 36 | 1011.7 |
| 20260904190028 | 70 | 344 | 0.0 | 6.0 | 0.00 | 0.00 | 0.00 | 37 | 1011.5 |
| 20260904184537 | 69 | 336 | 0.0 | 0.0 | 0.00 | 0.00 | 0.00 | 38 | 1011.4 |
| 20260904183014 | 68 | 334 | 0.0 | 0.0 | 0.00 | 0.00 | 0.00 | 1011.4 | |
| 20260904181541 | 68 | 336 | 0.0 | 5.0 | 0.00 | 0.00 | 0.00 | 1011.4 | |
| 20260904180028 | 67 | 305 | 0.0 | 0.0 | 0.00 | 0.00 | 0.00 | 41 | 1011.2 |
| 20260904174531 | 65 | 6 | 0.0 | 0.0 | 0.00 | 0.00 | 0.00 | 43 | 1011.0 |
| 20260904173035 | 63 | 304 | 0.0 | 0.0 | 0.00 | 0.00 | 0.00 | 45 | 1011.0 |
| 20260904171520 | 60 | 360 | 0.0 | 0.0 | 0.00 | 0.00 | 0.00 | 49 | 1011.0 |
| 20260904170004 | 59 | 333 | 0.0 | 0.0 | 0.00 | 0.00 | 0.00 | 51 | 1010.8 |
| 20260904164508 | 58 | 190 | 0.0 | 0.0 | 0.00 | 0.00 | 0.00 | 53 | 1010.6 |
| 20260904163011 | 58 | 323 | 0.0 | 0.0 | 0.00 | 0.00 | 0.00 | 54 | 1010.3 |
| 20260904161516 | 56 | 322 | 0.0 | 0.0 | 0.00 | 0.00 | 0.00 | 56 | 1010.1 |
| 20260904160024 | 56 | 253 | 0.0 | 0.0 | 0.00 | 0.00 | 0.00 | 57 | 1010.2 |
| 20260904154503 | 55 | 277 | 0.0 | 0.0 | 0.00 | 0.00 | 0.00 | 60 | 1009.9 |
| 20260904153017 | 55 | 306 | 0.0 | 0.0 | 0.00 | 0.00 | 0.00 | 62 | 1009.8 |